When you browse on this site, cookies collect data to enhance your experience and personalize the content and advertising you see.
Visit our Privacy Policy to learn more. By continuing to use the site, you agree to this use of cookies and data.
  • en France
  • Liste des pays
  • À 7 jours
  • Température de l'eau
  • Carte météo
  • Widgets météo
  • user-avatar
    Se connecter

    Météo par heure à Boma

    Ce jour, 26 Août, Lundi

    Heure Température Précipitation Vent Pression Humidité
    00:00 +19°C° 0.6 mm 0 m/s 702 mmHg 97%
    01:00 +19°C° 0.6 mm 0 m/s 702 mmHg 98%
    02:00 +19°C° 0.1 mm 0 m/s 702 mmHg 98%
    03:00 +19°C° 0.1 mm 0 m/s 702 mmHg 98%
    04:00 +19°C° 0.1 mm 0 m/s 702 mmHg 99%
    05:00 +19°C° 0 mm 0 m/s 702 mmHg 99%
    06:00 +19°C° 0 mm 0 m/s 702 mmHg 98%
    07:00 +19°C° 0 mm 0 m/s 702 mmHg 98%
    08:00 +21°C° 0 mm 0 m/s 703 mmHg 88%
    09:00 +23°C° 0 mm 0 m/s 703 mmHg 78%
    10:00 +27°C° 0 mm 1 m/s 704 mmHg 68%
    11:00 +28°C° 0 mm 1 m/s 703 mmHg 61%
    12:00 +30°C° 0 mm 1 m/s 703 mmHg 54%
    13:00 +31°C° 0 mm 1 m/s 702 mmHg 47%
    14:00 +30°C° 0.1 mm 1 m/s 701 mmHg 54%
    15:00 +29°C° 0.1 mm 1 m/s 700 mmHg 62%
    16:00 +26°C° 0.1 mm 0 m/s 699 mmHg 70%
    17:00 +25°C° 0.3 mm 0 m/s 699 mmHg 77%
    18:00 +23°C° 0.3 mm 0 m/s 700 mmHg 85%
    19:00 +21°C° 0.3 mm 0 m/s 700 mmHg 92%
    20:00 +20°C° 0.1 mm 0 m/s 701 mmHg 94%
    21:00 +20°C° 0.1 mm 0 m/s 701 mmHg 95%
    22:00 +19°C° 0.1 mm 0 m/s 702 mmHg 97%
    23:00 +19°C° 1 mm 0 m/s 702 mmHg 98%

    Demain, 27 Août, Mardi

    Heure Température Précipitation Vent Pression Humidité
    00:00 +19°C° 1 mm 0 m/s 702 mmHg 98%
    01:00 +21°C° 1 mm 1 m/s 701 mmHg 99%
    02:00 +21°C° 0.4 mm 1 m/s 701 mmHg 99%
    03:00 +21°C° 0.4 mm 1 m/s 701 mmHg 99%
    04:00 +21°C° 0.4 mm 1 m/s 701 mmHg 99%
    05:00 +21°C° 0 mm 1 m/s 701 mmHg 99%
    06:00 +21°C° 0 mm 1 m/s 702 mmHg 99%
    07:00 +22°C° 0 mm 1 m/s 702 mmHg 99%
    08:00 +22°C° 0 mm 1 m/s 703 mmHg 97%
    09:00 +22°C° 0 mm 1 m/s 703 mmHg 96%
    10:00 +23°C° 0 mm 1 m/s 703 mmHg 94%
    11:00 +24°C° 0 mm 1 m/s 703 mmHg 85%
    12:00 +26°C° 0 mm 1 m/s 702 mmHg 76%
    13:00 +27°C° 0 mm 1 m/s 702 mmHg 67%
    14:00 +28°C° 0 mm 1 m/s 701 mmHg 64%
    15:00 +29°C° 0 mm 1 m/s 700 mmHg 60%
    16:00 +30°C° 0 mm 1 m/s 700 mmHg 56%
    17:00 +28°C° 0.1 mm 1 m/s 700 mmHg 67%
    18:00 +24°C° 0.1 mm 0 m/s 700 mmHg 77%
    19:00 +21°C° 0.1 mm 0 m/s 700 mmHg 87%
    20:00 +21°C° 0.2 mm 0 m/s 701 mmHg 90%
    21:00 +20°C° 0.2 mm 0 m/s 701 mmHg 92%
    22:00 +20°C° 0.2 mm 0 m/s 702 mmHg 95%
    23:00 +20°C° 1.3 mm 0 m/s 702 mmHg 97%

    Après-demain, 28 Août, Mercredi

    Heure Température Précipitation Vent Pression Humidité
    00:00 +20°C° 1.3 mm 0 m/s 701 mmHg 98%
    01:00 +19°C° 1.3 mm 0 m/s 701 mmHg 99%
    02:00 +20°C° 0.9 mm 0 m/s 701 mmHg 99%
    03:00 +22°C° 0.9 mm 1 m/s 701 mmHg 99%
    04:00 +22°C° 0.9 mm 1 m/s 701 mmHg 99%
    05:00 +22°C° 0.2 mm 1 m/s 701 mmHg 99%
    06:00 +22°C° 0.2 mm 1 m/s 702 mmHg 99%
    07:00 +22°C° 0.2 mm 1 m/s 702 mmHg 99%
    08:00 +22°C° 0.1 mm 1 m/s 702 mmHg 96%
    09:00 +23°C° 0.1 mm 1 m/s 703 mmHg 94%
    10:00 +23°C° 0.1 mm 1 m/s 703 mmHg 92%
    11:00 +25°C° 0.2 mm 1 m/s 702 mmHg 85%
    12:00 +26°C° 0.2 mm 1 m/s 702 mmHg 78%
    13:00 +28°C° 0.2 mm 1 m/s 701 mmHg 71%
    14:00 +27°C° 1.2 mm 1 m/s 701 mmHg 75%
    15:00 +25°C° 1.2 mm 0 m/s 700 mmHg 80%
    16:00 +25°C° 1.2 mm 0 m/s 699 mmHg 84%
    17:00 +23°C° 0.5 mm 0 m/s 699 mmHg 88%
    18:00 +22°C° 0.5 mm 0 m/s 700 mmHg 92%
    19:00 +21°C° 0.5 mm 0 m/s 700 mmHg 97%
    20:00 +20°C° 0.2 mm 0 m/s 700 mmHg 97%
    21:00 +20°C° 0.2 mm 0 m/s 701 mmHg 97%
    22:00 +20°C° 0.2 mm 0 m/s 701 mmHg 98%
    23:00 +20°C° 0.9 mm 0 m/s 701 mmHg 98%

    29 Août, Jeudi

    Heure Température Précipitation Vent Pression Humidité
    00:00 +19°C° 0.8 mm 0 m/s 701 mmHg 98%
    01:00 +19°C° 0.8 mm 0 m/s 701 mmHg 98%
    02:00 +19°C° 0.4 mm 0 m/s 701 mmHg 99%
    03:00 +19°C° 0.4 mm 0 m/s 701 mmHg 99%
    04:00 +19°C° 0.4 mm 0 m/s 701 mmHg 99%
    05:00 +19°C° 0.9 mm 0 m/s 701 mmHg 99%
    06:00 +19°C° 0.9 mm 0 m/s 702 mmHg 99%
    07:00 +19°C° 0.9 mm 0 m/s 702 mmHg 99%
    08:00 +22°C° 0.7 mm 1 m/s 702 mmHg 98%
    09:00 +23°C° 0.7 mm 1 m/s 703 mmHg 97%
    10:00 +23°C° 0.7 mm 1 m/s 703 mmHg 96%
    11:00 +24°C° 0.4 mm 1 m/s 702 mmHg 94%
    12:00 +24°C° 0.4 mm 1 m/s 702 mmHg 92%
    13:00 +24°C° 0.4 mm 1 m/s 701 mmHg 90%
    14:00 +24°C° 0.3 mm 1 m/s 701 mmHg 92%
    15:00 +23°C° 0.3 mm 1 m/s 700 mmHg 93%
    16:00 +23°C° 0.3 mm 1 m/s 700 mmHg 95%
    17:00 +22°C° 0.7 mm 1 m/s 700 mmHg 96%
    18:00 +22°C° 0.7 mm 1 m/s 700 mmHg 97%
    19:00 +20°C° 0.7 mm 0 m/s 701 mmHg 98%
    20:00 +19°C° 0.2 mm 0 m/s 701 mmHg 98%
    21:00 +19°C° 0.2 mm 0 m/s 701 mmHg 99%
    22:00 +21°C° 0.2 mm 1 m/s 702 mmHg 99%
    23:00 +21°C° 0.1 mm 1 m/s 701 mmHg 99%

    30 Août, Vendredi

    Heure Température Précipitation Vent Pression Humidité
    00:00 +21°C° 0.1 mm 1 m/s 701 mmHg 99%
    01:00 +21°C° 0.1 mm 1 m/s 700 mmHg 99%
    02:00 +21°C° 0 mm 1 m/s 700 mmHg 99%
    03:00 +19°C° 0 mm 0 m/s 700 mmHg 98%
    04:00 +19°C° 0 mm 0 m/s 700 mmHg 98%
    05:00 +19°C° 0.1 mm 0 m/s 700 mmHg 98%
    06:00 +19°C° 0.1 mm 0 m/s 701 mmHg 98%
    07:00 +21°C° 0.1 mm 1 m/s 701 mmHg 98%
    08:00 +19°C° 0.2 mm 0 m/s 701 mmHg 98%
    09:00 +20°C° 0.2 mm 0 m/s 702 mmHg 97%
    10:00 +20°C° 0.2 mm 0 m/s 702 mmHg 96%
    11:00 +21°C° 0.3 mm 0 m/s 702 mmHg 91%
    12:00 +22°C° 0.3 mm 0 m/s 701 mmHg 87%
    13:00 +24°C° 0.3 mm 0 m/s 701 mmHg 82%
    14:00 +24°C° 0.4 mm 0 m/s 700 mmHg 82%
    15:00 +26°C° 0.4 mm 1 m/s 700 mmHg 82%
    16:00 +26°C° 0.4 mm 1 m/s 700 mmHg 82%
    17:00 +25°C° 0.7 mm 1 m/s 700 mmHg 87%
    18:00 +23°C° 0.7 mm 1 m/s 700 mmHg 92%
    19:00 +20°C° 0.7 mm 0 m/s 700 mmHg 96%
    20:00 +20°C° 0 mm 0 m/s 700 mmHg 97%
    21:00 +20°C° 0 mm 0 m/s 701 mmHg 97%
    22:00 +20°C° 0 mm 0 m/s 701 mmHg 97%
    23:00 +19°C° 0 mm 0 m/s 701 mmHg 97%

    31 Août, Samedi

    Heure Température Précipitation Vent Pression Humidité
    00:00 +21°C° 0 mm 1 m/s 700 mmHg 98%
    01:00 +21°C° 0 mm 1 m/s 700 mmHg 98%
    02:00 +21°C° 0 mm 1 m/s 700 mmHg 98%
    03:00 +21°C° 0 mm 1 m/s 700 mmHg 99%
    04:00 +21°C° 0 mm 1 m/s 699 mmHg 99%
    05:00 +21°C° 0 mm 1 m/s 700 mmHg 98%
    06:00 +21°C° 0 mm 1 m/s 700 mmHg 98%
    07:00 +22°C° 0 mm 1 m/s 701 mmHg 97%
    08:00 +23°C° 0 mm 1 m/s 701 mmHg 92%
    09:00 +23°C° 0 mm 1 m/s 701 mmHg 87%
    10:00 +24°C° 0 mm 1 m/s 702 mmHg 82%
    11:00 +26°C° 0 mm 1 m/s 701 mmHg 77%
    12:00 +27°C° 0 mm 1 m/s 700 mmHg 72%
    13:00 +28°C° 0 mm 1 m/s 700 mmHg 66%
    14:00 +28°C° 0.2 mm 1 m/s 699 mmHg 68%
    15:00 +28°C° 0.2 mm 1 m/s 699 mmHg 69%
    16:00 +28°C° 0.2 mm 1 m/s 698 mmHg 70%
    17:00 +26°C° 1.3 mm 1 m/s 699 mmHg 78%
    18:00 +24°C° 1.3 mm 1 m/s 699 mmHg 87%
    19:00 +23°C° 1.3 mm 1 m/s 699 mmHg 95%
    20:00 +22°C° 1.5 mm 1 m/s 700 mmHg 96%
    21:00 +22°C° 1.5 mm 1 m/s 700 mmHg 97%
    22:00 +22°C° 1.5 mm 1 m/s 701 mmHg 97%
    23:00 +22°C° 1.1 mm 1 m/s 701 mmHg 98%
    Voir plus